Fort Lauderdale, FL

6:42 PM EST on December 15, 2019 (GMT -0500)
Fort Lauderdale Executive

Weather History for KFXE - October, 2019

Change the Weather History Date:

Monday, October 21, 2019

  Actual Average Record
Temperature  
Mean Temperature 84 °F -  
Max Temperature 91 °F 85 °F 93 °F (1980)
Min Temperature 77 °F 69 °F 50 °F (1961)
Cooling Degree Days 19    
Growing Degree Days 34 (Base 50)    
Moisture  
Dew Point 75 °F    
Average Humidity 78    
Maximum Humidity 96    
Minimum Humidity 57    
Precipitation  
Precipitation 0.00 in - - ()
Sea Level Pressure  
Sea Level Pressure 29.99 in    
Wind  
Wind Speed 4 mph ()    
Max Wind Speed 14 mph    
Max Gust Speed -    
Visibility 10.0 miles    
Events      
Averages and records for this station are not official NWS values.
T = Trace of Precipitation, MM = Missing Value Source: Averaged Metar Reports

Daily Weather History Graph

Daily Weather History Graph

Search for Another Location

Airport or City:

Astronomy

Oct. 21, 2019 Rise Set
Actual Time 7:22 AM EDT 6:47 PM EDT
Civil Twilight 6:59 AM EDT 7:10 PM EDT
Nautical Twilight 6:32 AM EDT 7:37 PM EDT
Astronomical Twilight 6:05 AM EDT 8:04 PM EDT
Moon 12:17 AM EDT (10/21) 2:20 PM EDT (10/21)
Length of Visible Light 12h 11m
Length of Day
11h 24m
Waning Gibbous, 48% of the Moon is Illuminated
Oct 21
Waning Gibbous
Oct 27
New
Nov 4
First Quarter
Nov 12
Full
Nov 19
Last Quarter

Hourly Weather History & Observations

Time (EDT) Temp. Heat Index Dew Point Humidity Pressure Visibility Wind Dir Wind Speed Gust Speed Precip Events Conditions
12:53 AM 80.1 °F 85.1 °F 75.0 °F 85% 29.98 in 10.0 mi Calm Calm - N/A   Partly Cloudy
1:53 AM 79.0 °F - 75.0 °F 88% 29.97 in 10.0 mi Calm Calm - N/A   Scattered Clouds
2:53 AM 78.1 °F - 75.0 °F 90% 29.96 in 10.0 mi Calm Calm - N/A   Clear
3:53 AM 79.0 °F - 75.9 °F 90% 29.96 in 10.0 mi Calm Calm - N/A   Clear
4:53 AM 78.1 °F - 75.0 °F 90% 29.96 in 10.0 mi WSW 3.5 mph - N/A   Clear
5:53 AM 77.0 °F - 75.0 °F 94% 29.97 in 10.0 mi Calm Calm - N/A   Clear
6:53 AM 77.0 °F - 75.0 °F 94% 29.98 in 10.0 mi Calm Calm - N/A   Scattered Clouds
7:53 AM 77.0 °F - 75.9 °F 96% 29.99 in 10.0 mi Calm Calm - N/A   Clear
8:53 AM 82.0 °F 90.2 °F 77.0 °F 85% 30.00 in 10.0 mi SSE 3.5 mph - N/A   Scattered Clouds
9:53 AM 84.0 °F 92.6 °F 75.9 °F 76% 30.00 in 10.0 mi South 6.9 mph - N/A   Partly Cloudy
10:53 AM 87.1 °F 95.4 °F 73.9 °F 65% 30.01 in 10.0 mi SSE 10.4 mph - N/A   Partly Cloudy
11:53 AM 89.1 °F 98.0 °F 73.9 °F 61% 30.01 in 10.0 mi SE 8.1 mph - N/A   Scattered Clouds
12:53 PM 90.0 °F 100.2 °F 75.0 °F 61% 30.00 in 10.0 mi SSE 9.2 mph - N/A   Partly Cloudy
1:53 PM 91.0 °F 100.4 °F 73.9 °F 57% 29.98 in 10.0 mi SSE 9.2 mph - N/A   Partly Cloudy
2:53 PM 90.0 °F 101.3 °F 75.9 °F 63% 29.97 in 10.0 mi SE 11.5 mph - N/A   Scattered Clouds
3:53 PM 89.1 °F 99.1 °F 75.0 °F 63% 29.97 in 10.0 mi SE 13.8 mph - N/A   Scattered Clouds
4:53 PM 88.0 °F 97.5 °F 75.0 °F 65% 29.97 in 10.0 mi SE 10.4 mph - N/A   Clear
5:53 PM 87.1 °F 92.8 °F 71.1 °F 59% 29.98 in 10.0 mi SE 9.2 mph - N/A   Clear
6:53 PM 84.0 °F 91.2 °F 73.9 °F 72% 29.98 in 10.0 mi SE 10.4 mph - N/A   Scattered Clouds
7:53 PM 82.9 °F 90.8 °F 75.9 °F 79% 30.00 in 10.0 mi SSE 6.9 mph - N/A   Clear
8:53 PM 82.9 °F 91.8 °F 77.0 °F 82% 30.00 in 10.0 mi SE 8.1 mph - N/A   Clear
9:53 PM 82.0 °F 90.2 °F 77.0 °F 85% 30.01 in 10.0 mi SSE 5.8 mph - N/A   Clear
10:53 PM 82.0 °F 89.4 °F 75.9 °F 82% 30.03 in 10.0 mi Calm Calm - N/A   Clear
11:44 PM 81.0 °F 87.9 °F 77.0 °F 88% 30.01 in 10.0 mi SSE 3.5 mph - N/A   Mostly Cloudy
11:53 PM 81.0 °F 87.9 °F 77.0 °F 88% 30.02 in 10.0 mi SSE 3.5 mph - N/A   Mostly Cloudy